This demonstration page uses our WeatherBlox Daily Observations layout. Learn more.

Left ArrowRight Arrow

36.17497, -115.13722

Hourly Observations for December 6, 2021

Temp ( °F °C ) Dew Point ( °F °C ) Humidity (%) Winds ( mph kmh ) Pressure ( in mb ) Visibility ( mi km ) Precip ( " mm )
12:53 am 00:53 Clear 60 15.6 16 -8.9 18 18 NNW 7 11 30.10 1019 10 16 N/A
1:53 am 01:53 Clear 55 12.8 16 -8.9 21 21 NW 8 13 30.11 1020 10 16 N/A
2:53 am 02:53 Clear 53 11.7 16 -8.9 23 23 S 5 7 30.10 1019 10 16 N/A
3:53 am 03:53 Clear 52 11.1 18 -7.8 26 26 VRB 3 6 30.12 1020 10 16 N/A
4:53 am 04:53 Clear 56 13.3 17 -8.3 22 22 NW 10 17 30.11 1020 10 16 N/A
5:53 am 05:53 Clear 51 10.6 18 -7.8 27 27 W 8 13 30.12 1020 9 14 N/A
6:53 am 06:53 Sunny 55 12.8 19 -7.2 24 24 W 8 13 30.13 1020 10 16 N/A
7:53 am 07:53 Sunny 55 12.8 19 -7.2 24 24 NW 6 9 30.15 1021 10 16 N/A
8:53 am 08:53 Sunny 59 15 21 -6.1 23 23 N N/A 30.15 1021 10 16 N/A
9:53 am 09:53 Sunny 65 18.3 19 -7.2 17 17 N N/A 30.14 1021 10 16 N/A
10:53 am 10:53 Sunny 67 19.4 19 -7.2 16 16 NE 6 9 30.10 1019 10 16 N/A
11:53 am 11:53 Sunny 68 20 17 -8.3 14 14 NE 5 7 30.05 1018 10 16 N/A
12:53 pm 12:53 Sunny 68 20 18 -7.8 15 15 N N/A 30.02 1017 10 16 N/A
1:53 pm 13:53 Sunny 69 20.6 18 -7.8 14 14 N N/A 29.99 1016 10 16 N/A
2:53 pm 14:53 Sunny 68 20 16 -8.9 13 13 N N/A 29.98 1015 10 16 N/A
3:53 pm 15:53 Sunny 67 19.4 16 -8.9 14 14 N N/A 29.97 1015 10 16 N/A
4:53 pm 16:53 Clear 63 17.2 20 -6.7 19 19 E 5 7 29.96 1014 10 16 N/A
5:53 pm 17:53 Clear 63 17.2 25 -3.9 24 24 N N/A 29.96 1015 10 16 N/A
6:53 pm 18:53 Clear 60 15.6 25 -3.9 26 26 SSW 5 7 29.94 1014 10 16 N/A
7:53 pm 19:53 Clear 57 13.9 24 -4.4 28 28 NW 5 7 29.96 1014 10 16 N/A
8:53 pm 20:53 Clear 58 14.4 25 -3.9 28 28 NW 5 7 29.94 1014 10 16 N/A
9:53 pm 21:53 Clear 57 13.9 26 -3.3 30 30 NW 3 6 29.93 1014 10 16 N/A
10:53 pm 22:53 Clear 58 14.4 24 -4.4 27 27 SW 3 6 29.93 1014 10 16 N/A
11:53 pm 23:53 Clear 58 14.4 23 -5 26 26 SW 3 6 29.92 1013 10 16 N/A

Powered by AerisWeather